This is the latest recevied weather packets stored in our database for station/object AJ7DN. If no packets are shown the sender has not sent any weather packets the latest 10 day(s).
| Time | Temp. | Humidity | Pressure | Rain* | Wind** | Luminosity | Snow |
|---|---|---|---|---|---|---|---|
| 1777949769 | 20° C | 69% | 1014.8 hPa | 0 mm | - | 6 W/m² | - |
| 1777949468 | 20° C | 69% | 1014.6 hPa | 0 mm | - | 7 W/m² | - |
| 1777949165 | 20° C | 69% | 1014.7 hPa | 0 mm | - | 8 W/m² | - |
| 1777948862 | 20.56° C | 68% | 1014.7 hPa | 0 mm | - | 9 W/m² | - |
| 1777948559 | 20.56° C | 67% | 1014.7 hPa | 0 mm | - | 12 W/m² | - |
| 1777948257 | 20.56° C | 67% | 1014.7 hPa | 0 mm | - | 13 W/m² | - |
| 1777947954 | 20.56° C | 67% | 1014.8 hPa | 0 mm | - | 14 W/m² | - |
| 1777947651 | 21.11° C | 67% | 1014.6 hPa | 0 mm | - | 16 W/m² | - |
| 1777947347 | 21.11° C | 67% | 1014.7 hPa | 0 mm | - | 17 W/m² | - |
| 1777947044 | 21.11° C | 65% | 1014.7 hPa | 0 mm | - | 19 W/m² | - |
| 1777946744 | 21.67° C | 67% | 1014.4 hPa | 0 mm | - | 20 W/m² | - |
| 1777946441 | 22.22° C | 65% | 1014.7 hPa | 0 mm | - | 21 W/m² | - |
| 1777946138 | 22.22° C | 65% | 1014.5 hPa | 0 mm | - | 22 W/m² | - |
| 1777945835 | 22.22° C | 65% | 1014.6 hPa | 0 mm | - | 24 W/m² | - |
| 1777945532 | 22.22° C | 65% | 1014.4 hPa | 0 mm | - | 28 W/m² | - |
| 1777945229 | 22.22° C | 64% | 1014.4 hPa | 0 mm | - | 34 W/m² | - |
| 1777944926 | 22.78° C | 63% | 1014.7 hPa | 0 mm | - | 32 W/m² | - |
| 1777944624 | 22.78° C | 63% | 1014.7 hPa | 0 mm | - | 35 W/m² | - |
| 1777944321 | 22.78° C | 63% | 1014.6 hPa | 0 mm | - | 36 W/m² | - |
| 1777944018 | 22.78° C | 62% | 1014.8 hPa | 0 mm | - | 37 W/m² | - |
| 1777943714 | 22.78° C | 62% | 1014.8 hPa | 0 mm | - | 37 W/m² | - |
| 1777943411 | 22.78° C | 63% | 1014.9 hPa | 0 mm | - | 39 W/m² | - |
| 1777943106 | 23.33° C | 62% | 1015 hPa | 0 mm | - | 39 W/m² | - |
| 1777942803 | 23.89° C | 61% | 1014.8 hPa | 0 mm | - | 45 W/m² | - |
| 1777942499 | 23.89° C | 60% | 1015 hPa | 0 mm | - | 138 W/m² | - |
* Rain latest hour (hover to see other rain measurements)
** Current wind speed in m/s (hover to see current wind gust speed)